Regional Weather Roundup
Issued by NWS

Home | Current Version | Previous Version | Graphics & Text | Print | Product List | Glossary On
Versions: 1 2 3 4 5 6 7 8 9 10 11 12 13 14 15 16 17 18 19 20 21 22 23 24 25 26 27 28 29 30 31 32 33 34 35 36 37 38 39 40 41 42 43 44 45 46 47 48 49 50
000
ASUS45 KABQ 231010
RWRNM
NEW MEXICO REGIONAL WEATHER ROUNDUP
NATIONAL WEATHER SERVICE ALBUQUERQUE NM
400 AM MDT WED AUG 23 2017

NOTE: "FAIR" MEANS FEW OR NO CLOUDS BELOW 12,000 FEET AGL WITH NO
       SIGNIFICANT WEATHER OR OBSTRUCTIONS TO VISION.

      THIS PRODUCT IS RELEASED AS TWO VERSIONS.  ONE VERSION NEAR
      THE TOP OF THE HOUR CONTAINING PRELIMINARY DATA FROM ALBUQUERQUE
      AND OTHER STATIONS.  A FINAL VERSION WITH ADDITIONAL DATA IS
      ISSUED ABOUT 10 MINUTES AFTER THE HOUR.

NMZ501-503-504-510>518-231100-
NORTHWEST PLATEAU/NORTHCENTRAL MOUNTAINS

CITY           SKY/WX    TMP DP  RH WIND       PRES   REMARKS
FARMINGTON     FAIR      66  48  52 E9        30.26S
LOS ALAMOS     FAIR      58  50  76 NE3       30.42F
SANTA FE       LGT RAIN  61  57  87 SE10      30.36F
TAOS           FAIR      49  49 100 S12       30.44F
ANGEL FIRE     FOG       46  46  98 CALM      30.49F VSB 1/4

$$
NMZ402-403-502-505>509-231100-
WESTCENTRAL MOUNTAINS/SOUTHWEST MOUNTAINS

CITY           SKY/WX    TMP DP  RH WIND       PRES   REMARKS
GALLUP         FAIR      55  40  56 NE3       30.33R
GRANTS         FAIR      62  55  77 S10       30.37S
SILVER CITY    FAIR      64  55  71 N7        30.23F

$$
NMZ407-409-411-412-231100-
SOUTHERN DESERTS

CITY           SKY/WX    TMP DP  RH WIND       PRES   REMARKS
DEMING         FAIR      70  61  73 NE7       30.16S
LAS CRUCES     FAIR      73  61  65 SE5       30.19S
HOLLOMAN AFB   FAIR      73  61  64 NW7       30.20S
ALAMOGORDO     FAIR      72  59  64 CALM      30.18S
T OR C         FAIR      73  61  65 N7        30.21S

$$
NMZ519>523-231100-
CENTRAL VALLEYS/CENTRAL HIGHLANDS

CITY           SKY/WX    TMP DP  RH WIND       PRES   REMARKS
ALBUQUERQUE    FAIR      66  60  81 E7        30.30R
MORIARTY ARPT  FAIR      63  62  97 CALM      30.37F
CLINES CORNERS FAIR      57  55  94 CALM      30.40F
BELEN          FAIR      66  61  84 NW8       30.29S
SOCORRO        MOCLDY    69  58  67 NW8       30.25S

$$
NMZ524>526-539-540-231100-
SOUTHCENTRAL MOUNTAINS

CITY           SKY/WX    TMP DP  RH WIND       PRES   REMARKS
RUIDOSO        CLOUDY    59  59 100 S7        30.39F

$$
NMZ527>531-231100-
NORTHEAST HIGHLANDS/NORTHEAST PLAINS

CITY           SKY/WX    TMP DP  RH WIND       PRES   REMARKS
LAS VEGAS      FAIR      52  50  93 S5        30.38F
RATON          FAIR      50  49  96 E3        30.35S
CLAYTON        MOCLDY    59  59 100 E6        30.27F

$$
NMZ532>537-231100-
EASTCENTRAL PLAINS

CITY           SKY/WX    TMP DP  RH WIND       PRES   REMARKS
SANTA ROSA     FAIR      65  63  93 CALM      30.26S
TUCUMCARI      CLOUDY    68  67  96 NW5       30.20F
CANNON AFB     CLOUDY    66  66 100 N6        30.24S
CLOVIS AIRPORT MOCLDY    65  63  93 NW6       30.24S

$$
NMZ028-029-538-231100-
SOUTHEAST PLAINS

CITY           SKY/WX    TMP DP  RH WIND       PRES   REMARKS
ROSWELL        FAIR      69  65  86 N6        30.20S
ARTESIA        FAIR      68  68 100 N8        30.19S
CARLSBAD       FAIR      69  67  93 CALM      30.16S
HOBBS          MOCLDY    64  64 100 N5        30.18S


$$




USA.gov is the U.S. government's official web portal to all federal, state and local government web resources and services.